TRA9M EHEH-EKCH

Flight info

Callsign TRA9M
Flight time 1h 10m
Altitude 33000
Route VELNI Y869 SUMOP L179 MEVEL Y850 BASUM DCT MAKEL N851 GESKA Z711 MONAK
Aircraft B738/M-SDE2E3FGHIRWXY/LB1

Departure

Time 2026-05-04 18:25
Airport Eindhoven Airport (EHEH)

Arrival

Time 2026-05-04 19:36
Airport Copenhagen Kastrup Airport (EKCH)
Time Latitude Longitude Altitude Speed Heading
2026-05-04 18:07 51.45889 5.39099 69 ft 0 kts 125°
2026-05-04 18:19 51.45889 5.39097 74 ft 2 kts 125°
2026-05-04 18:19 51.45902 5.39062 65 ft 4 kts 109°
2026-05-04 18:20 51.45907 5.39021 66 ft 4 kts 88°
2026-05-04 18:20 51.45903 5.38979 66 ft 4 kts 65°
2026-05-04 18:20 51.45888 5.38944 63 ft 4 kts 40°
2026-05-04 18:20 51.45883 5.38936 66 ft 0 kts 34°
2026-05-04 18:23 51.45900 5.38955 66 ft 7 kts 34°
2026-05-04 18:23 51.45950 5.38991 74 ft 8 kts
2026-05-04 18:23 51.45991 5.38935 65 ft 8 kts 303°
2026-05-04 18:23 51.46023 5.38862 72 ft 9 kts 305°
2026-05-04 18:24 51.46066 5.38767 69 ft 12 kts 304°
2026-05-04 18:24 51.46081 5.38650 67 ft 10 kts 232°
2026-05-04 18:24 51.46030 5.38590 66 ft 9 kts 211°
2026-05-04 18:24 51.45948 5.38499 71 ft 33 kts 215°
2026-05-04 18:25 51.45553 5.38060 75 ft 105 kts 215°
2026-05-04 18:25 51.44781 5.37193 96 ft 162 kts 214°
2026-05-04 18:25 51.43823 5.36116 684 ft 172 kts 214°
2026-05-04 18:25 51.42782 5.34969 1270 ft 191 kts 213°
2026-05-04 18:26 51.41645 5.33710 1859 ft 206 kts 214°
2026-05-04 18:26 51.40444 5.32385 2404 ft 214 kts 208°
2026-05-04 18:26 51.38967 5.31914 2805 ft 225 kts 169°
2026-05-04 18:26 51.37557 5.33110 3301 ft 235 kts 129°
2026-05-04 18:27 51.36901 5.35412 4216 ft 229 kts 96°
2026-05-04 18:27 51.36861 5.37971 4962 ft 233 kts 89°
2026-05-04 18:27 51.36880 5.40576 5647 ft 235 kts 89°
2026-05-04 18:27 51.36894 5.43169 5955 ft 234 kts 89°
2026-05-04 18:28 51.36893 5.45827 6459 ft 241 kts 90°
2026-05-04 18:28 51.36881 5.48516 7202 ft 242 kts 90°
2026-05-04 18:28 51.36863 5.51208 7960 ft 243 kts 90°
2026-05-04 18:28 51.36843 5.53894 8644 ft 246 kts 90°
2026-05-04 18:29 51.36828 5.56715 9168 ft 259 kts 89°
2026-05-04 18:29 51.36822 5.59737 9448 ft 280 kts 89°
2026-05-04 18:29 51.36817 5.62852 10044 ft 287 kts 89°
2026-05-04 18:29 51.36921 5.66158 10345 ft 306 kts 76°
2026-05-04 18:30 51.38739 5.72711 10886 ft 340 kts 63°
2026-05-04 18:30 51.39788 5.76135 11526 ft 344 kts 63°
2026-05-04 18:30 51.40802 5.79617 12289 ft 346 kts 64°
2026-05-04 18:31 51.41844 5.83113 12986 ft 350 kts 64°
2026-05-04 18:31 51.42909 5.86648 13692 ft 355 kts 64°
2026-05-04 18:31 51.43976 5.90240 14311 ft 360 kts 64°
2026-05-04 18:31 51.45054 5.93890 14953 ft 364 kts 64°
2026-05-04 18:32 51.46141 5.97576 15643 ft 367 kts 65°
2026-05-04 18:32 51.47236 6.01307 16289 ft 372 kts 65°
2026-05-04 18:32 51.48327 6.05041 16908 ft 377 kts 65°
2026-05-04 18:32 51.49445 6.08872 17548 ft 381 kts 65°
2026-05-04 18:33 51.50571 6.12763 18186 ft 386 kts 66°
2026-05-04 18:33 51.51699 6.16695 18721 ft 390 kts 66°
2026-05-04 18:33 51.52805 6.20696 19234 ft 394 kts 72°
2026-05-04 18:33 51.53434 6.24986 19790 ft 396 kts 82°
2026-05-04 18:34 51.53854 6.29387 20225 ft 403 kts 84°
2026-05-04 18:34 51.54316 6.33915 20602 ft 412 kts 78°
2026-05-04 18:34 51.55303 6.38208 21151 ft 417 kts 63°
2026-05-04 18:34 51.56939 6.42078 21731 ft 421 kts 50°
2026-05-04 18:35 51.58975 6.45477 22232 ft 426 kts 45°
2026-05-04 18:35 51.61095 6.48853 22692 ft 431 kts 45°
2026-05-04 18:35 51.63241 6.52255 23177 ft 435 kts 45°
2026-05-04 18:35 51.65365 6.55729 23703 ft 437 kts 45°
2026-05-04 18:36 51.67537 6.59182 24100 ft 440 kts 45°
2026-05-04 18:36 51.69716 6.62674 24467 ft 445 kts 45°
2026-05-04 18:36 51.71915 6.66230 24836 ft 449 kts 46°
2026-05-04 18:36 51.74122 6.69826 25210 ft 453 kts 46°
2026-05-04 18:37 51.76341 6.73459 25580 ft 457 kts 46°
2026-05-04 18:37 51.78577 6.77130 25934 ft 460 kts 46°
2026-05-04 18:37 51.80828 6.80833 26284 ft 464 kts 46°
2026-05-04 18:37 51.83101 6.84586 26546 ft 470 kts 46°
2026-05-04 18:38 51.85380 6.88395 26861 ft 473 kts 46°
2026-05-04 18:38 51.87671 6.92209 27350 ft 473 kts 45°
2026-05-04 18:38 51.90021 6.95955 27700 ft 476 kts 45°
2026-05-04 18:38 51.92342 6.99725 27998 ft 480 kts 46°
2026-05-04 18:39 51.94679 7.03603 28300 ft 483 kts 46°
2026-05-04 18:39 51.97025 7.07537 28630 ft 486 kts 46°
2026-05-04 18:39 51.99377 7.11490 28959 ft 489 kts 46°
2026-05-04 18:39 52.01743 7.15467 29269 ft 491 kts 46°
2026-05-04 18:40 52.04128 7.19471 29565 ft 494 kts 46°
2026-05-04 18:40 52.06524 7.23489 29916 ft 496 kts 46°
2026-05-04 18:40 52.08922 7.27512 30321 ft 495 kts 46°
2026-05-04 18:40 52.11314 7.31527 30736 ft 493 kts 46°
2026-05-04 18:41 52.13695 7.35528 31115 ft 492 kts 46°
2026-05-04 18:41 52.16079 7.39540 31452 ft 493 kts 46°
2026-05-04 18:41 52.18462 7.43554 31771 ft 493 kts 46°
2026-05-04 18:41 52.20844 7.47579 32111 ft 493 kts 46°
2026-05-04 18:42 52.23215 7.51592 32494 ft 492 kts 46°
2026-05-04 18:42 52.25584 7.55608 32847 ft 491 kts 46°
2026-05-04 18:42 52.27924 7.59582 32977 ft 495 kts 46°
2026-05-04 18:43 52.32718 7.67741 32974 ft 497 kts 46°
2026-05-04 18:43 52.37471 7.75863 32437 ft 490 kts 46°
2026-05-04 18:43 52.39800 7.79860 33131 ft 486 kts 46°
2026-05-04 18:44 52.42155 7.83904 33021 ft 494 kts 46°
2026-05-04 18:44 52.46935 7.92112 32971 ft 498 kts 46°
2026-05-04 18:45 52.51716 8.00349 32961 ft 499 kts 45°
2026-05-04 18:45 52.56459 8.08546 32971 ft 498 kts 45°
2026-05-04 18:46 52.61225 8.16828 32967 ft 498 kts 46°
2026-05-04 18:46 52.65974 8.25106 32968 ft 497 kts 46°
2026-05-04 18:47 52.70704 8.33376 32966 ft 496 kts 46°
2026-05-04 18:47 52.75425 8.41661 32969 ft 495 kts 45°
2026-05-04 18:48 52.80132 8.49943 32976 ft 494 kts 45°
2026-05-04 18:48 52.84793 8.58175 32977 ft 494 kts 46°
2026-05-04 18:49 52.89483 8.66483 32982 ft 493 kts 45°
2026-05-04 18:49 52.94157 8.74796 33007 ft 493 kts 45°
2026-05-04 18:50 52.98830 8.83133 32995 ft 493 kts 45°
2026-05-04 18:50 53.03500 8.91493 32995 ft 494 kts 45°
2026-05-04 18:51 53.08166 8.99876 32988 ft 494 kts 45°
2026-05-04 18:51 53.12824 9.08272 32986 ft 494 kts 45°
2026-05-04 18:52 53.17485 9.16703 32981 ft 495 kts 45°
2026-05-04 18:52 53.22145 9.25161 32953 ft 495 kts 45°
2026-05-04 18:53 53.26798 9.33635 32968 ft 495 kts 45°
2026-05-04 18:53 53.31441 9.42123 32970 ft 495 kts 45°
2026-05-04 18:54 53.36048 9.50571 32972 ft 495 kts 45°
2026-05-04 18:54 53.40705 9.59142 32969 ft 498 kts 45°
2026-05-04 18:55 53.45363 9.67744 32989 ft 498 kts 45°
2026-05-04 18:55 53.52387 9.80589 32986 ft 496 kts 39°
2026-05-04 18:56 53.55109 9.84070 32999 ft 489 kts 27°
2026-05-04 18:56 53.58114 9.86688 32995 ft 484 kts 18°
2026-05-04 18:56 53.64440 9.89864 32972 ft 476 kts
2026-05-04 18:57 53.70862 9.92550 32959 ft 475 kts
2026-05-04 18:57 53.77254 9.95321 32983 ft 474 kts
2026-05-04 18:58 53.83620 9.98168 33009 ft 473 kts
2026-05-04 18:58 53.89975 10.01023 32981 ft 472 kts
2026-05-04 18:59 53.96271 10.03849 32973 ft 471 kts
2026-05-04 18:59 54.02590 10.06689 32974 ft 469 kts
2026-05-04 19:00 54.08903 10.09534 32994 ft 469 kts
2026-05-04 19:00 54.15216 10.12387 32992 ft 469 kts
2026-05-04 19:01 54.21527 10.15250 32987 ft 470 kts
2026-05-04 19:01 54.27802 10.18105 32997 ft 470 kts
2026-05-04 19:02 54.34122 10.20990 33012 ft 470 kts
2026-05-04 19:02 54.40451 10.23889 32997 ft 471 kts
2026-05-04 19:03 54.46782 10.26798 32991 ft 471 kts
2026-05-04 19:03 54.53095 10.29711 32893 ft 464 kts
2026-05-04 19:04 54.56199 10.31150 32292 ft 462 kts
2026-05-04 19:04 54.59275 10.32572 31536 ft 465 kts
2026-05-04 19:04 54.62389 10.34014 31259 ft 464 kts
2026-05-04 19:04 54.65528 10.35465 31165 ft 472 kts
2026-05-04 19:05 54.68735 10.36945 31059 ft 481 kts
2026-05-04 19:05 54.71990 10.38454 31000 ft 486 kts
2026-05-04 19:05 54.78497 10.41503 30972 ft 482 kts
2026-05-04 19:06 54.84932 10.44758 30967 ft 481 kts 12°
2026-05-04 19:06 54.91325 10.47540 30972 ft 470 kts
2026-05-04 19:07 54.97612 10.50381 30978 ft 470 kts
2026-05-04 19:07 55.03852 10.53420 30406 ft 461 kts
2026-05-04 19:08 55.06962 10.54920 29573 ft 466 kts
2026-05-04 19:08 55.10059 10.56421 29242 ft 458 kts 12°
2026-05-04 19:08 55.13121 10.57989 29131 ft 460 kts
2026-05-04 19:08 55.16264 10.59283 29027 ft 469 kts 10°
2026-05-04 19:09 55.22626 10.62447 28958 ft 481 kts 18°
2026-05-04 19:09 55.25530 10.65400 28981 ft 487 kts 37°
2026-05-04 19:09 55.27866 10.69718 28966 ft 492 kts 52°
2026-05-04 19:10 55.29480 10.74918 28966 ft 494 kts 70°
2026-05-04 19:10 55.30473 10.80683 28986 ft 494 kts 75°
2026-05-04 19:10 55.32273 10.92217 28948 ft 483 kts 73°
2026-05-04 19:11 55.34180 11.03535 28968 ft 485 kts 73°
2026-05-04 19:11 55.36081 11.14922 28961 ft 487 kts 73°
2026-05-04 19:12 55.39096 11.32045 28945 ft 490 kts 61°
2026-05-04 19:12 55.41065 11.36778 28976 ft 486 kts 41°
2026-05-04 19:13 55.43804 11.40179 28791 ft 468 kts 21°
2026-05-04 19:13 55.46814 11.41785 28073 ft 456 kts
2026-05-04 19:13 55.49937 11.41522 27137 ft 447 kts 342°
2026-05-04 19:13 55.52761 11.39407 26075 ft 442 kts 322°
2026-05-04 19:14 55.54943 11.35670 25094 ft 436 kts 301°
2026-05-04 19:14 55.56169 11.30855 24400 ft 428 kts 282°
2026-05-04 19:14 55.56405 11.25708 23802 ft 420 kts 263°
2026-05-04 19:14 55.55544 11.20826 23138 ft 417 kts 242°
2026-05-04 19:15 55.53709 11.16895 22414 ft 419 kts 221°
2026-05-04 19:15 55.51145 11.14452 21726 ft 424 kts 200°
2026-05-04 19:15 55.48231 11.13571 21075 ft 426 kts 188°
2026-05-04 19:15 55.45283 11.13314 20399 ft 424 kts 185°
2026-05-04 19:16 55.42343 11.13197 19707 ft 422 kts 185°
2026-05-04 19:16 55.39415 11.13199 19058 ft 421 kts 179°
2026-05-04 19:16 55.36581 11.14593 18396 ft 431 kts 155°
2026-05-04 19:16 55.34279 11.17852 17786 ft 436 kts 131°
2026-05-04 19:17 55.32822 11.22572 17161 ft 437 kts 107°
2026-05-04 19:17 55.32513 11.27837 16545 ft 435 kts 83°
2026-05-04 19:17 55.33348 11.32787 15928 ft 428 kts 59°
2026-05-04 19:17 55.35214 11.36855 15317 ft 419 kts 40°
2026-05-04 19:18 55.37203 11.40567 14704 ft 419 kts 51°
2026-05-04 19:18 55.38791 11.44780 14112 ft 418 kts 56°
2026-05-04 19:18 55.40304 11.49135 13510 ft 415 kts 57°
2026-05-04 19:18 55.41784 11.53480 13355 ft 400 kts 57°
2026-05-04 19:19 55.43162 11.57559 13253 ft 376 kts 57°
2026-05-04 19:19 55.44453 11.61408 13098 ft 356 kts 57°
2026-05-04 19:19 55.45269 11.63852 12995 ft 343 kts 57°
2026-05-04 19:19 55.46444 11.67391 12880 ft 326 kts 57°
2026-05-04 19:20 55.47558 11.70767 12762 ft 311 kts 58°
2026-05-04 19:20 55.48531 11.74091 12534 ft 301 kts 63°
2026-05-04 19:20 55.49404 11.77429 12122 ft 299 kts 63°
2026-05-04 19:20 55.50282 11.80742 11688 ft 298 kts 62°
2026-05-04 19:21 55.51180 11.84010 11288 ft 295 kts 61°
2026-05-04 19:21 55.52095 11.87236 10899 ft 292 kts 61°
2026-05-04 19:21 55.53017 11.90413 10502 ft 290 kts 60°
2026-05-04 19:21 55.53929 11.93512 10127 ft 288 kts 60°
2026-05-04 19:22 55.54868 11.96678 9743 ft 286 kts 60°
2026-05-04 19:22 55.55786 11.99757 9468 ft 278 kts 60°
2026-05-04 19:22 55.56668 12.02712 9225 ft 270 kts 59°
2026-05-04 19:22 55.57545 12.05640 8830 ft 269 kts 59°
2026-05-04 19:23 55.58419 12.08556 8459 ft 269 kts 59°
2026-05-04 19:23 55.59293 12.11477 8233 ft 267 kts 60°
2026-05-04 19:23 55.60158 12.14368 8020 ft 265 kts 60°
2026-05-04 19:23 55.61018 12.17246 7781 ft 264 kts 60°
2026-05-04 19:24 55.61875 12.20116 7531 ft 263 kts 60°
2026-05-04 19:24 55.62726 12.22970 7306 ft 261 kts 60°
2026-05-04 19:24 55.63572 12.25810 7078 ft 260 kts 60°
2026-05-04 19:24 55.64402 12.28598 6854 ft 259 kts 60°
2026-05-04 19:25 55.65250 12.31453 6611 ft 258 kts 60°
2026-05-04 19:25 55.66085 12.34265 6391 ft 257 kts 60°
2026-05-04 19:25 55.66913 12.37061 6155 ft 256 kts 60°
2026-05-04 19:25 55.67737 12.39843 5936 ft 254 kts 60°
2026-05-04 19:26 55.68560 12.42620 5660 ft 255 kts 59°
2026-05-04 19:26 55.69383 12.45402 5423 ft 254 kts 60°
2026-05-04 19:26 55.70198 12.48166 5210 ft 252 kts 60°
2026-05-04 19:26 55.71007 12.50911 4989 ft 251 kts 60°
2026-05-04 19:27 55.71800 12.53659 4756 ft 250 kts 60°
2026-05-04 19:27 55.72583 12.56403 4534 ft 248 kts 61°
2026-05-04 19:27 55.73361 12.59129 4295 ft 247 kts 60°
2026-05-04 19:27 55.74116 12.61844 4100 ft 245 kts 64°
2026-05-04 19:28 55.74943 12.64454 4006 ft 242 kts 44°
2026-05-04 19:28 55.76182 12.66409 4011 ft 238 kts 37°
2026-05-04 19:28 55.77440 12.68333 4008 ft 239 kts 38°
2026-05-04 19:28 55.78678 12.70290 3998 ft 240 kts 43°
2026-05-04 19:29 55.79539 12.72838 4008 ft 243 kts 65°
2026-05-04 19:29 55.80169 12.75573 3991 ft 240 kts 65°
2026-05-04 19:29 55.80800 12.78269 3920 ft 232 kts 65°
2026-05-04 19:29 55.81407 12.80870 3828 ft 224 kts 65°
2026-05-04 19:30 55.81994 12.83416 3656 ft 220 kts 68°
2026-05-04 19:30 55.82091 12.86099 3373 ft 223 kts 109°
2026-05-04 19:30 55.81186 12.88238 3125 ft 218 kts 150°
2026-05-04 19:30 55.79795 12.89289 3030 ft 218 kts 175°
2026-05-04 19:31 55.78315 12.89311 3009 ft 208 kts 185°
2026-05-04 19:31 55.76923 12.89050 2963 ft 193 kts 205°
2026-05-04 19:31 55.75950 12.87579 3028 ft 186 kts 238°
2026-05-04 19:31 55.75050 12.85912 2988 ft 190 kts 214°
2026-05-04 19:32 55.73929 12.84698 2962 ft 187 kts 226°
2026-05-04 19:32 55.73079 12.83008 2808 ft 185 kts 229°
2026-05-04 19:32 55.72072 12.81561 2569 ft 186 kts 222°
2026-05-04 19:32 55.71111 12.80079 2319 ft 184 kts 226°
2026-05-04 19:33 55.70159 12.78568 2059 ft 183 kts 225°
2026-05-04 19:33 55.69209 12.77089 1805 ft 180 kts 225°
2026-05-04 19:33 55.68270 12.75637 1568 ft 178 kts 225°
2026-05-04 19:33 55.67339 12.74196 1330 ft 176 kts 225°
2026-05-04 19:34 55.66433 12.72800 1071 ft 170 kts 225°
2026-05-04 19:34 55.65563 12.71475 809 ft 161 kts 225°
2026-05-04 19:34 55.64725 12.70106 610 ft 159 kts 224°
2026-05-04 19:34 55.63914 12.68915 415 ft 148 kts 223°
2026-05-04 19:35 55.63178 12.67742 211 ft 136 kts 226°
2026-05-04 19:35 55.62467 12.66648 54 ft 135 kts 224°
2026-05-04 19:35 55.61825 12.65636 23 ft 100 kts 222°
2026-05-04 19:35 55.61480 12.65116 19 ft 50 kts 220°
2026-05-04 19:36 55.61296 12.64778 21 ft 24 kts 238°
2026-05-04 19:36 55.61235 12.64513 24 ft 23 kts 251°
2026-05-04 19:36 55.61206 12.64357 25 ft 12 kts 252°
2026-05-04 19:36 55.61190 12.64253 25 ft 6 kts 261°
2026-05-04 19:37 55.61193 12.64180 25 ft 6 kts 281°
2026-05-04 19:37 55.61218 12.64124 23 ft 6 kts 326°
2026-05-04 19:37 55.61258 12.64104 23 ft 7 kts
2026-05-04 19:37 55.61340 12.64178 25 ft 17 kts 33°
2026-05-04 19:38 55.61438 12.64291 25 ft 16 kts 32°
2026-05-04 19:38 55.61531 12.64403 24 ft 16 kts 33°
2026-05-04 19:38 55.61622 12.64503 24 ft 15 kts 29°
2026-05-04 19:38 55.61707 12.64608 23 ft 15 kts 42°
2026-05-04 19:39 55.61789 12.64706 25 ft 14 kts 32°
2026-05-04 19:39 55.61871 12.64792 24 ft 13 kts 31°
2026-05-04 19:39 55.61947 12.64881 22 ft 13 kts 32°
2026-05-04 19:39 55.62026 12.64967 21 ft 14 kts 30°
2026-05-04 19:40 55.62060 12.65004 21 ft 0 kts 33°
2026-05-04 19:41 55.62060 12.65005 21 ft 1 kts 33°
2026-05-04 19:41 55.62096 12.65048 23 ft 8 kts 33°
2026-05-04 19:42 55.62143 12.65101 25 ft 8 kts 31°
2026-05-04 19:42 55.62188 12.65152 23 ft 8 kts 34°
2026-05-04 19:42 55.62205 12.65176 26 ft 0 kts 38°
2026-05-04 19:42 55.62216 12.65186 25 ft 5 kts 21°
2026-05-04 19:43 55.62255 12.65197 23 ft 6 kts
2026-05-04 19:43 55.62289 12.65226 26 ft 6 kts 64°
2026-05-04 19:43 55.62297 12.65298 23 ft 6 kts 63°
2026-05-04 19:43 55.62334 12.65327 23 ft 6 kts
2026-05-04 19:44 55.62379 12.65333 23 ft 9 kts
2026-05-04 19:44 55.62440 12.65399 23 ft 12 kts 72°
2026-05-04 19:44 55.62446 12.65548 23 ft 12 kts 91°
2026-05-04 19:44 55.62445 12.65694 23 ft 12 kts 89°
2026-05-04 19:45 55.62485 12.65760 23 ft 9 kts
2026-05-04 19:45 55.62523 12.65759 23 ft 0 kts 358°